Terminal Aerodrome Forecast
Issued by NWS Portland, OR

Home | Current Version | Previous Version | Text Only | Print | Product List | Glossary On
Versions: 1 2 3 4 5 6 7 8 9 10 11 12 13 14 15 16 17 18 19 20 21 22 23 24 25 26 27 28 29 30 31 32 33 34 35 36 37 38 39 40 41 42 43 44 45 46 47 48 49 50
466
FTUS46 KPQR 031130
TAFPDX
TAF
KPDX 031130Z 0312/0412 VRB03KT P6SM SCT140
     FM031900 31006KT P6SM SCT080 BKN200
     FM040000 32010KT P6SM BKN080 OVC200
     FM040400 30008KT P6SM VCSH SCT040 BKN070 OVC120
     FM040900 28005KT P6SM BKN035 OVC050=

USA.gov is the U.S. government's official web portal to all federal, state and local government web resources and services.